Location: LDNL
(36.4545°S, 141.6685°E)
Time: 11:41:36
(UTC+10:00)

Vanguard 3 - Pass Details

Date: 02 February 2022
Orbit: 508 x 3258 km, 33.3° (Epoch: 25 May)

Event Time Altitude Azimuth Distance (km) Brightness Sun altitude
Rises 21:31:17 0° 340° (NNW) 2,788 9.8 -9.6°
Reaches altitude 10° 21:34:05 10° 4° (N) 2,103 9.0 -10.1°
Maximum altitude 21:36:58 16° 42° (NE) 2,008 8.6 -10.6°
Enters shadow 21:38:41 14° 61° (ENE) 2,283 8.8 -10.9°
Drops below altitude 10° 21:40:36 10° 77° (ENE) 2,778 - -11.2°
Sets 21:45:14 0° 96° (E) 4,291 - -12.0°
